Other Public Products
Issued by NWS Charleston, SC

Current Version | Previous Version | Graphics & Text | Print | Product List | Glossary On
Versions: 1 2 3 4 5 6 7 8 9 10 11 12 13 14 15 16 17 18 19 20 21 22 23 24 25 26 27 28 29 30 31 32 33 34 35 36 37 38 39 40 41 42 43 44 45 46 47 48 49 50
436
FPUS82 KCHS 182212
OPUCHS

TEST...KCHS/KSAV Gateway Observations...TEST
National Weather Service Charleston SC
600 PM EDT WED APR 18 2018

NOTE: "fair" indicates few or no clouds below 12,000 feet with no
significant weather and/or obstructions to visibility.

SCZ050-WAZ558-NCZ071-TXZ119-213-PAZ071-DCZ001-FLZ074-172-MI076-
NYZ176-178-MAZ016-IL014-TNZ027-NJZ106-GAZ044-MD014-182300-

...Gateway Observations for Charleston International...

CITY           SKY/WX    TMP DP  RH WIND       PRES   REMARKS
Chas Airport   FAIR      78  55  44 S18       29.94S
Seattle        PTSUNNY   57  39  51 N9        30.17F
Charlotte      FAIR      83  36  18 SW16G28   29.79F
Dallas DFW     MOSUNNY   78  28  16 NW20G25   30.06S
Dallas Love    MOSUNNY   78  33  19 NW21G28   30.07S
Philladelphia  FAIR      55  29  36 W9        29.80F
Wash National  FAIR      62  36  37 SE3       29.78F
Baltimore      FAIR      60  33  36 VRB5      29.78F
Miami          FAIR      79  58  48 E14       30.10R
Detroit        CLOUDY    42  27  55 E10       29.79S
Newark         FAIR      54  29  38 W13       29.79R
Laguardia      FAIR      54  26  34 W10       29.77S
J F K          FAIR      52  32  46 SW18      29.79S
Boston Logan   PTSUNNY   51  30  44 W13       29.68R
Ft. Lauderdale FAIR      78  61  55 NE12G18   30.09S
Chicago O`Hare DRIZZLE   34  31  88 NE15      29.81R FOG     WCI  24
Chicago Midway DRIZZLE   35  32  88 N9        29.81R FOG     WCI  28
Houston Bush   PTSUNNY   80  66  62 NW8       30.01S
Houston Hobby  CLOUDY    79  66  64 N14       30.00R
Nashville      PTSUNNY   73  56  54 SW14G25   29.82S
Atlanta        FAIR      81  44  27 SW17G29   29.92S

$$

GAZ044-118-TXZ119-213-NCZ071-DCZ001-MDZ014-506-PAZ021-071-NJZ106-
NYZ176-178-MAZ106-OHZ011-021-055-MIZ076-KYZ091-ILZ014-INZ047-
MNZ060-ONZ431-182300-

...Gateway Observations for Savannah International...

CITY           SKY/WX    TMP DP  RH WIND       PRES   REMARKS
Savannah Arpt  FAIR      87  43  21 SW18G32   29.96F
Atlanta        FAIR      81  44  27 SW17G29   29.92S
Charlotte      FAIR      83  36  18 SW16G28   29.79F
Dallas DFW     MOSUNNY   78  28  16 NW20G25   30.06S
Houston Bush   PTSUNNY   80  66  62 NW8       30.01S
Wash National  FAIR      62  36  37 SE3       29.78F
Wash Dulles    FAIR      62  39  42 SW7       29.76F
Baltimore      FAIR      60  33  36 VRB5      29.78F
Philadelphia   FAIR      55  29  36 W9        29.80F
Newark         FAIR      54  29  38 W13       29.79R
Laguardia      FAIR      54  26  34 W10       29.77S
J F K          FAIR      52  32  46 SW18      29.79S
Boston         PTSUNNY   51  30  44 W13       29.68R
Pittsburg      CLOUDY    52  30  43 E3        29.73F
Akron          CLOUDY    49  30  48 NE6       29.74S
Cleveland      CLOUDY    38  29  70 N17       29.82R WCI  28
Cincinnati     CLOUDY    72  52  49 SW5       29.62F
Columbus       CLOUDY    56  40  53 NE8       29.70S
Detroit        CLOUDY    42  27  55 E10       29.79S
Chicago O`Hare DRIZZLE   34  31  88 NE15      29.81R FOG     WCI  24
Minneapolis    CLOUDY    38  28  67 N7        30.03R WCI  33
Indianapolis   PTSUNNY   64  49  57 W25G36    29.67R
Toronto Canada CLOUDY    37  27  65 W15       29.80S WCI  28

$$




USA.gov is the U.S. government's official web portal to all federal, state and local government web resources and services.